Regional Weather Roundup
Issued by NWS

Home | Current Version | Previous Version | Graphics & Text | Print | Product List | Glossary On
Versions: 1 2 3 4 5 6 7 8 9 10 11 12 13 14 15 16 17 18 19 20 21 22 23 24 25 26 27 28 29 30 31 32 33 34 35 36 37 38 39 40 41 42 43 44 45 46 47 48 49 50
170
ASUS45 KSLC 250910
RWRUT

UTAH REGIONAL WEATHER ROUNDUP
NATIONAL WEATHER SERVICE SALT LAKE CITY UT
300 AM MDT THU AUG 25 2016

UTZ001>011-023>025-251000-

NORTHERN UTAH

CITY           SKY/WX    TMP DP  RH WIND       PRES   REMARKS
BRIGHAM CITY     N/A     60  28  29 CALM      30.12S
HILL AFB       CLEAR     57  24  27 E16       30.13S
LOGAN          PTCLDY    49  35  58 CALM      30.15F
OGDEN          CLEAR     59  31  34 SW6       30.11S
PROVO AIRPORT  PTCLDY    54  23  30 CALM      30.13S
SALT LAKE CITY CLEAR     61  32  33 S7        30.10S
VERNAL         CLEAR     61  25  25 NE8       30.16S
WENDOVER       CLEAR     64  21  19 SW3       30.12F
HEBER CITY     CLEAR     39  28  65 E3        30.21S
WEST JORDAN    CLEAR     58  26  28 W6        30.13S

$$

UTZ012>022-026-027-251000-

SOUTHERN/CENTRAL UTAH

CITY           SKY/WX    TMP DP  RH WIND       PRES   REMARKS
BLANDING       CLEAR     55  41  59 N7        30.29R
BRYCE CANYON   CLEAR     41  38  89 W6        30.31F
CEDAR CITY     CLEAR     58  40  51 S7        30.14F
DELTA          PTCLDY    61  19  20 NE7       30.09F
MILFORD        CLEAR     55  34  45 CALM      30.10F
MOAB/CYNLANDS  CLEAR     67  41  38 SE7       30.10R
PRICE          PTCLDY    59  12  15 N12       30.18F
ST GEORGE      SUNNY     79  46  31 E22       29.96R

$$

REGIONAL REPORTS     COLORADO/ARIZONA

CITY           SKY/WX    TMP DP  RH WIND       PRES   REMARKS
CRAIG, CO      CLOUDY    46  37  71 CALM      30.22S
GRAND JUNCTION CLEAR     58  49  72 E9        30.15S
RIFLE          CLEAR     54  46  74 E8        30.19F
MONTROSE       CLOUDY    54  45  71 SW3       30.25S
CORTEZ         CLEAR     51  48  89 E5        30.23F
PAGE, AZ       CLEAR     71  47  42 S3        30.09S
GRAND CANYON   CLEAR     48  42  80 CALM      30.28F
KINGMAN        CLEAR     77  49  37 SE16      30.03F
FLAGSTAFF      CLEAR     47  46  97 CALM      30.32S

$$

REGIONAL REPORTS    NEVADA/IDAHO/WYOMING

CITY           SKY/WX    TMP DP  RH WIND       PRES   REMARKS
LAS VEGAS, NV  CLEAR     89  32  13 S9        29.84F
ELY            CLEAR     46  17  31 S9        30.20S
ELKO           CLEAR     50  25  37 CALM      30.15S
POCATELLO, ID  CLEAR     51  36  56 NE8       30.19S
EVANSTON, WY   CLOUDY    47  21  35 E14       30.27F
ROCK SPRINGS   NOT AVBL

$$




USA.gov is the U.S. government's official web portal to all federal, state and local government web resources and services.